VK3XEM-13 Weather Reports


time (UTC)temp
F
wind
direction
speed
knots
gust
knots
rain 1hr
in
rain 24hr
in
rain mn
in
humidity
%
barometer
mb
20260505121714 56 206 0.0 0.0 0.00 0.00 0.00 74 1020.5
20260505120214 56 207 0.9 0.9 0.00 0.00 0.00 74 1020.5
20260505114715 56 181 0.0 0.0 0.00 0.00 0.00 74 1020.9
20260505113221 56 181 0.0 0.0 0.00 0.00 0.00 73 1020.9
20260505111714 56 180 0.0 0.0 0.00 0.00 0.00 73 1020.5
20260505110215 56 180 0.0 0.0 0.00 0.00 0.00 72 1020.9
20260505101714 56 188 0.0 0.0 0.00 0.00 0.00 71 1020.9
20260505100214 56 183 0.0 0.9 0.00 0.00 0.00 71 1020.9
20260505094714 56 157 0.0 0.0 0.00 0.00 0.00 71 1020.9
20260505093214 57 179 0.0 0.0 0.00 0.00 0.00 69 1020.5
20260505091714 57 161 0.0 0.9 0.00 0.00 0.00 70 1020.5
20260505090214 57 165 0.0 0.9 0.00 0.00 0.00 70 1020.5
20260505084714 57 151 0.0 0.9 0.00 0.00 0.00 69 1020.5
20260505083214 57 161 0.0 0.0 0.00 0.00 0.00 69 1020.2
20260505081714 57 199 0.9 1.7 0.00 0.00 0.00 68 1020.2
20260505080214 58 119 0.0 0.0 0.00 0.00 0.00 70 1020.2
20260505074714 58 100 0.0 0.0 0.00 0.00 0.00 68 1019.8
20260505073214 58 101 0.0 0.0 0.00 0.00 0.00 68 1019.8
20260505071714 58 72 0.0 1.7 0.00 0.00 0.00 67 1019.5
20260505070214 58 52 1.7 1.7 0.00 0.00 0.00 66 1019.5
20260505064714 59 107 0.9 1.7 0.00 0.00 0.00 65 1019.2
20260505063214 59 74 0.9 1.7 0.00 0.00 0.00 64 1019.2
20260505061714 59 99 0.0 1.7 0.00 0.00 0.00 65 1019.2
20260505060214 59 81 0.9 3.5 0.00 0.00 0.00 64 1019.2
20260505054714 59 57 0.0 5.2 0.00 0.00 0.00 64 1018.8
20260505053214 59 74 0.9 2.6 0.00 0.00 0.00 64 1018.8
20260505051714 59 78 0.0 1.7 0.00 0.00 0.00 63 1018.5
20260505050214 59 106 0.9 2.6 0.00 0.00 0.00 63 1018.5
20260505041714 59 63 0.0 1.7 0.00 0.00 0.00 63 1018.1
20260505040214 59 74 1.7 2.6 0.00 0.00 0.00 62 1018.1
20260505034714 58 129 1.7 3.5 0.00 0.00 0.00 63 1018.5
20260505033214 58 78 2.6 3.5 0.00 0.00 0.00 63 1018.1
20260505031715 59 53 0.0 3.5 0.00 0.00 0.00 60 1018.1
20260505030214 59 88 3.5 5.2 0.00 0.00 0.00 59 1018.1
20260505024714 59 66 0.9 5.2 0.00 0.00 0.00 61 1018.5
20260505023214 58 107 2.6 9.6 0.00 0.00 0.00 61 1018.1
20260505021714 58 79 3.5 6.1 0.00 0.00 0.00 65 1018.5
20260505020214 58 57 0.0 3.5 0.00 0.00 0.00 65 1018.5
20260505014714 58 53 1.7 6.1 0.00 0.00 0.00 66 1018.5
20260505013214 58 72 0.0 1.7 0.00 0.00 0.00 67 1018.5
20260505011714 58 111 3.5 7.0 0.00 0.00 0.00 65 1018.5
20260505010214 57 81 3.5 6.1 0.00 0.00 0.00 68 1018.5
20260505004714 57 110 2.6 5.2 0.00 0.00 0.00 69 1018.5
20260505003214 58 67 5.2 7.8 0.00 0.00 0.00 69 1018.1
20260505001714 58 44 3.5 3.5 0.00 0.00 0.00 68 1018.1
20260505000214 57 87 0.9 7.8 0.00 0.00 0.00 69 1018.1
20260504234714 57 57 3.5 8.7 0.00 0.00 0.00 69 1017.8
20260504233214 57 53 0.0 3.5 0.00 0.00 0.00 72 1017.8
20260504231714 57 317 4.3 6.1 0.00 0.00 0.00 75 1017.8
20260504230214 57 61 4.3 6.1 0.00 0.00 0.00 76 1017.8
20260504224714 56 45 1.7 3.5 0.00 0.00 0.00 79 1017.5
20260504223302 56 115 1.7 2.6 0.00 0.00 0.00 82 1017.1
20260504221714 54 147 0.0 1.7 0.00 0.00 0.00 86 1016.8
20260504220214 54 147 0.9 2.6 0.00 0.00 0.00 88 1016.8
20260504214714 53 110 1.7 1.7 0.00 0.00 0.00 88 1016.5
20260504213214 53 111 0.9 2.6 0.00 0.00 0.00 88 1016.1
20260504211714 53 94 0.9 2.6 0.00 0.00 0.00 88 1015.8
20260504210214 53 136 0.9 2.6 0.00 0.00 0.00 88 1016.1
20260504204714 53 79 0.9 1.7 0.00 0.00 0.00 88 1015.1
20260504203214 53 121 0.9 0.9 0.00 0.00 0.00 88 1015.1
20260504201714 53 121 0.9 0.9 0.00 0.00 0.00 88 1015.1
20260504200214 54 174 1.7 2.6 0.00 0.00 0.00 87 1015.1
20260504194714 55 122 0.9 1.7 0.00 0.00 0.00 82 1014.4
20260504193214 55 95 0.9 2.6 0.00 0.00 0.00 80 1014.8
20260504191715 55 105 1.7 3.5 0.00 0.00 0.00 80 1014.4
20260504190214 55 116 0.0 1.7 0.00 0.00 0.00 79 1014.4
20260504184714 55 126 1.7 3.5 0.00 0.00 0.00 79 1014.1
20260504183214 55 85 4.3 7.0 0.00 0.00 0.00 79 1014.1
20260504181715 55 128 0.0 3.5 0.00 0.00 0.00 78 1013.7
20260504180214 55 94 1.7 5.2 0.00 0.00 0.00 77 1013.4
20260504174715 56 91 2.6 3.5 0.00 0.00 0.00 76 1013.7
20260504173214 56 77 2.6 5.2 0.00 0.00 0.00 76 1013.4
20260504171714 56 88 1.7 3.5 0.00 0.00 0.00 76 1013.4
20260504170214 55 109 0.9 3.5 0.00 0.00 0.00 77 1013.1
20260504160214 56 139 0.9 0.9 0.00 0.00 0.00 80 1013.1
20260504150214 56 122 0.9 1.7 0.00 0.00 0.00 78 1012.7
20260504140214 56 126 0.9 1.7 0.00 0.00 0.00 79 1012.4
20260504130215 57 150 0.9 3.5 0.00 0.00 0.02 78 1012.0